FW9881 Weather Reports


Display with metric or nautical units.
time (UTC)temp
F
wind
direction
speed
MPH
gust
MPH
rain 1hr
in
rain 24hr
in
rain mn
in
humidity
%
barometer
mb
20260905031743 62 202 0.0 0.0 0.00 0.00 0.00 86 1013.7
20260905030726 62 292 0.0 0.0 0.00 0.00 0.00 85 1013.7
20260905025727 62 292 0.0 0.0 0.00 0.00 0.00 86 1013.7
20260905024726 62 292 0.0 0.0 0.00 0.00 0.00 87 1013.9
20260905023825 62 310 1.0 3.0 0.00 0.00 0.00 87 1013.9
20260905022827 61 337 0.0 0.0 0.00 0.00 0.00 87 1014.1
20260905021842 61 337 0.0 0.0 0.00 0.00 0.00 87 1014.1
20260905021726 61 337 0.0 0.0 0.00 0.00 0.00 87 1014.1
20260905020726 62 337 0.0 0.0 0.00 0.00 0.00 86 1014.2
20260905020625 62 337 0.0 0.0 0.00 0.00 0.00 87 1014.3
20260905015626 62 337 0.0 0.0 0.00 0.00 0.00 87 1014.3
20260905014726 62 337 0.0 0.0 0.00 0.00 0.00 85 1014.4
20260905013825 62 337 0.0 0.0 0.00 0.00 0.00 85 1014.4
20260905013726 62 337 0.0 0.0 0.00 0.00 0.00 85 1014.4
20260905012825 62 337 0.0 0.0 0.00 0.00 0.00 85 1014.5
20260905011825 62 337 0.0 0.0 0.00 0.00 0.00 84 1014.4
20260905010841 63 337 0.0 0.0 0.00 0.00 0.00 82 1014.3
20260905010725 63 337 0.0 0.0 0.00 0.00 0.00 82 1014.3
20260905005726 63 337 0.0 0.0 0.00 0.00 0.00 81 1014.1
20260905005625 64 337 0.0 0.0 0.00 0.00 0.00 80 1014.2
20260905004627 64 337 0.0 0.0 0.00 0.00 0.00 80 1014.3
20260905003628 65 337 0.0 0.0 0.00 0.00 0.00 78 1014.3
20260905002626 66 337 0.0 0.0 0.00 0.00 0.00 77 1014.1
20260905000627 67 315 2.0 3.0 0.00 0.00 0.00 76 1013.9
20260904235628 67 337 2.0 3.0 0.00 0.00 0.00 77 1013.9
20260904235525 67 337 2.0 3.0 0.00 0.00 0.00 77 1013.9
20260904234527 67 337 1.0 4.0 0.00 0.00 0.00 77 1013.8
20260904233426 67 270 0.0 0.0 0.00 0.00 0.00 74 1013.8
20260904232427 68 337 0.0 0.0 0.00 0.00 0.00 73 1013.7
20260904230426 70 337 0.0 0.0 0.00 0.00 0.00 67 1013.4
20260904225425 71 337 0.0 0.0 0.00 0.00 0.00 65 1013.3
20260904225325 71 337 0.0 1.0 0.00 0.00 0.00 64 1013.2
20260904224343 72 337 2.0 3.0 0.00 0.00 0.00 61 1013.3
20260904223427 73 337 2.0 3.0 0.00 0.00 0.00 60 1013.0
20260904222525 75 277 0.0 1.0 0.00 0.00 0.00 58 1012.9
20260904221527 75 337 0.0 1.0 0.00 0.00 0.00 57 1012.9
20260904220527 76 333 1.0 3.0 0.00 0.00 0.00 56 1012.9
20260904215624 76 318 2.0 5.0 0.00 0.00 0.00 56 1012.9
20260904215526 76 337 1.0 3.0 0.00 0.00 0.00 56 1013.0
20260904213626 77 349 2.0 3.0 0.00 0.00 0.00 55 1012.8
20260904212725 78 258 5.0 10.0 0.00 0.00 0.00 54 1012.8
20260904212627 78 308 1.0 5.0 0.00 0.00 0.00 53 1012.8
20260904212525 78 279 4.0 7.0 0.00 0.00 0.00 53 1012.8
20260904211527 78 259 4.0 6.0 0.00 0.00 0.00 52 1012.6
20260904210526 78 341 2.0 4.0 0.00 0.00 0.00 52 1012.8
20260904210427 78 352 1.0 4.0 0.00 0.00 0.00 51 1012.8
20260904205524 78 337 1.0 3.0 0.00 0.00 0.00 51 1012.7
20260904204526 78 337 2.0 3.0 0.00 0.00 0.00 50 1012.7
20260904202428 79 328 0.0 3.0 0.00 0.00 0.00 51 1012.6
20260904201525 78 319 4.0 6.0 0.00 0.00 0.00 52 1012.6
20260904201425 78 355 4.0 8.0 0.00 0.00 0.00 51 1012.5
20260904200427 79 343 3.0 5.0 0.00 0.00 0.00 49 1012.6
20260904200328 80 337 2.0 4.0 0.00 0.00 0.00 50 1012.6
20260904195325 80 322 1.0 4.0 0.00 0.00 0.00 50 1012.6
20260904192325 79 2 2.0 4.0 0.00 0.00 0.00 51 1012.6
20260904191324 79 263 1.0 4.0 0.00 0.00 0.00 51 1012.7
20260904190326 78 305 1.0 2.0 0.00 0.00 0.00 52 1012.6
20260904185326 78 265 5.0 7.0 0.00 0.00 0.00 54 1012.6
20260904185240 78 261 4.0 10.0 0.00 0.00 0.00 54 1012.6
20260904184325 78 305 0.0 0.0 0.00 0.00 0.00 57 1012.8
20260904183326 78 326 2.0 4.0 0.00 0.00 0.00 56 1012.9
20260904182425 78 355 3.0 7.0 0.00 0.00 0.00 55 1013.2
20260904181427 77 252 5.0 8.0 0.00 0.00 0.00 59 1013.2
20260904180426 76 337 2.0 4.0 0.00 0.00 0.00 58 1013.2
20260904175426 77 276 5.0 9.0 0.00 0.00 0.00 56 1013.0
20260904174426 77 256 5.0 10.0 0.00 0.00 0.00 55 1012.7
20260904173524 77 244 1.0 3.0 0.00 0.00 0.00 54 1012.8
20260904172527 78 348 3.0 6.0 0.00 0.00 0.00 52 1013.0
20260904172425 78 327 2.0 6.0 0.00 0.00 0.00 53 1013.0
20260904171326 78 11 0.0 3.0 0.00 0.00 0.00 53 1012.9
20260904165342 77 256 1.0 5.0 0.00 0.00 0.00 56 1013.2
20260904163326 77 334 4.0 7.0 0.00 0.00 0.00 56 1013.3
20260904162327 77 305 2.0 4.0 0.00 0.00 0.00 55 1013.2
20260904160425 78 337 1.0 3.0 0.00 0.00 0.00 57 1013.4
20260904155427 77 326 4.0 7.0 0.00 0.00 0.00 58 1013.6
20260904154525 76 337 2.0 6.0 0.00 0.00 0.00 59 1013.6
20260904153426 76 343 4.0 7.0 0.00 0.00 0.00 60 1013.7
20260904152425 76 344 3.0 6.0 0.00 0.00 0.00 62 1013.7
20260904151424 75 260 4.0 7.0 0.00 0.00 0.00 63 1013.7
20260904150441 75 274 2.0 9.0 0.00 0.00 0.00 66 1013.8
20260904145425 75 279 4.0 7.0 0.00 0.00 0.00 68 1013.9
20260904145326 75 279 2.0 4.0 0.00 0.00 0.00 69 1013.8
20260904144241 74 322 1.0 3.0 0.00 0.00 0.00 75 1013.9
20260904143242 73 199 0.0 1.0 0.00 0.00 0.00 79 1013.7
20260904141243 70 270 0.0 0.0 0.00 0.00 0.00 88 1014.2
20260904140326 68 337 1.0 3.0 0.00 0.00 0.00 88 1014.4
20260904135424 68 331 2.0 7.0 0.00 0.00 0.00 88 1014.5
20260904133525 67 320 2.0 4.0 0.00 0.00 0.00 84 1014.5
20260904133426 67 338 1.0 4.0 0.00 0.00 0.00 84 1014.5
20260904132425 66 342 2.0 5.0 0.00 0.00 0.00 84 1014.4
20260904131425 65 337 0.0 1.0 0.00 0.00 0.00 84 1014.6
20260904130426 64 337 0.0 2.0 0.00 0.00 0.00 84 1014.6
20260904125425 63 225 0.0 1.0 0.00 0.00 0.00 84 1014.6
20260904123324 60 157 1.0 2.0 0.00 0.00 0.00 85 1014.5
20260904122324 59 157 0.0 1.0 0.00 0.00 0.00 85 1014.6
20260904122225 59 157 0.0 0.0 0.00 0.00 0.00 85 1014.5
20260904122126 59 157 0.0 1.0 0.00 0.00 0.00 85 1014.5
20260904121125 58 157 0.0 1.0 0.00 0.00 0.00 85 1014.6
20260904115224 58 292 0.0 0.0 0.00 0.00 0.00 85 1014.5
20260904115127 58 292 0.0 0.0 0.00 0.00 0.00 84 1014.5
20260904114126 58 292 0.0 0.0 0.00 0.00 0.00 84 1014.6
20260904113125 58 292 0.0 0.0 0.00 0.00 0.00 85 1014.5
20260904112225 58 292 0.0 0.0 0.00 0.00 0.00 85 1014.5
20260904111324 57 292 0.0 0.0 0.00 0.00 0.00 84 1014.4
20260904111224 57 292 0.0 0.0 0.00 0.00 0.00 85 1014.5
20260904110227 57 22 0.0 0.0 0.00 0.00 0.00 84 1014.5
20260904105324 57 22 0.0 0.0 0.00 0.00 0.00 85 1014.4
20260904104327 56 22 0.0 0.0 0.00 0.00 0.00 84 1014.3
20260904103324 56 22 0.0 0.0 0.00 0.00 0.00 85 1014.3
20260904102327 56 22 0.0 0.0 0.00 0.00 0.00 85 1014.3
20260904101425 56 180 0.0 0.0 0.00 0.00 0.00 85 1014.2
20260904100524 56 180 0.0 0.0 0.00 0.00 0.00 85 1014.3
20260904095526 57 180 0.0 0.0 0.00 0.00 0.00 85 1014.3
20260904092623 57 180 0.0 0.0 0.00 0.00 0.00 85 1014.1
20260904091625 57 180 0.0 0.0 0.00 0.01 0.00 84 1014.0
20260904090625 57 180 0.0 0.0 0.00 0.01 0.00 84 1014.1
20260904090542 57 180 0.0 0.0 0.00 0.01 0.00 85 1014.1
20260904085524 58 180 0.0 0.0 0.00 0.01 0.00 84 1014.1
20260904085425 58 180 0.0 0.0 0.00 0.01 0.00 84 1014.0
20260904084440 58 180 0.0 0.0 0.00 0.01 0.00 85 1013.9
20260904083527 58 180 0.0 0.0 0.00 0.02 0.00 85 1014.1
20260904082623 58 180 0.0 0.0 0.00 0.02 0.00 85 1014.0
20260904082544 58 180 0.0 0.0 0.00 0.02 0.00 84 1014.1
20260904081626 58 180 0.0 0.0 0.00 0.02 0.00 85 1014.1
20260904081540 58 180 0.0 0.0 0.00 0.02 0.00 85 1014.1
20260904080624 58 180 0.0 0.0 0.00 0.02 0.00 84 1014.2
20260904075724 58 180 0.0 0.0 0.00 0.02 0.00 84 1014.4
20260904073725 59 180 0.0 0.0 0.00 0.02 0.00 84 1014.3
20260904071724 59 180 0.0 0.0 0.00 0.02 0.00 83 1014.3
20260904070724 59 180 0.0 0.0 0.00 0.02 0.00 84 1014.4
20260904065724 60 180 0.0 0.0 0.00 0.02 0.00 84 1014.4
20260904064726 60 180 0.0 0.0 0.00 0.02 0.00 84 1014.5
20260904064624 60 180 0.0 0.0 0.00 0.02 0.00 83 1014.5
20260904063724 60 180 0.0 0.0 0.00 0.03 0.00 83 1014.5
20260904062740 60 180 0.0 0.0 0.00 0.04 0.00 84 1014.5
20260904061825 60 180 0.0 0.0 0.00 0.04 0.00 84 1014.5
20260904061740 60 180 0.0 0.0 0.00 0.04 0.00 84 1014.5
20260904060826 60 180 0.0 0.0 0.00 0.06 0.00 83 1014.6
20260904055826 61 180 0.0 0.0 0.00 0.07 0.00 84 1014.7
20260904054824 61 180 0.0 0.0 0.00 0.07 0.00 84 1015.0
20260904053824 61 180 0.0 0.0 0.00 0.07 0.00 83 1015.1
20260904051924 62 180 0.0 0.0 0.00 0.07 0.00 83 1015.3
20260904050926 62 180 0.0 0.0 0.00 0.07 0.00 84 1015.3
20260904050023 62 180 0.0 0.0 0.00 0.07 0.00 84 1015.4
20260904045023 62 180 0.0 0.0 0.00 0.07 0.00 84 1015.4
20260904044025 62 180 0.0 0.0 0.00 0.07 0.00 84 1015.4
20260904043024 63 180 1.0 2.0 0.00 0.07 0.00 84 1015.4
20260904042039 63 180 0.0 0.0 0.00 0.07 0.00 83 1015.4
20260904040028 63 180 0.0 0.0 0.00 0.07 0.00 85 1015.5
20260904035112 63 180 0.0 0.0 0.00 0.07 0.07 85 1015.4
20260904034114 63 180 0.0 0.0 0.00 0.07 0.07 85 1015.6
20260904033111 63 180 0.0 0.0 0.00 0.07 0.07 84 1015.6